Regional Weather Roundup
Issued by NWS Upton, NY

Current Version | Previous Version | Graphics & Text | Print | Product List | Glossary Off
Versions: 1 2 3 4 5 6 7 8 9 10 11 12 13 14 15 16 17 18 19 20 21 22 23 24 25 26 27 28

000
ASUS41 KOKX 300004
RWROKX

REGIONAL WEATHER ROUNDUP
NATIONAL WEATHER SERVICE NEW YORK NY
800 PM EDT MON AUG 29 2016

NOTE: "FAIR" INDICATES FEW OR NO CLOUDS BELOW 12,000 FEET WITH NO
SIGNIFICANT WEATHER AND/OR OBSTRUCTIONS TO VISIBILITY.

NYZ071-072-176-178-NJZ106-104-300100-
NEW YORK CITY METRO AREA

CITY           SKY/WX    TMP DP  RH WIND       PRES   REMARKS
Central Park   CLEAR     84  57  39 VRB3      30.12R
LaGuardia APRT PTCLDY    86  58  38 NW13      30.08R
Kennedy INTL   PTCLDY    84  60  44 N12       30.09R
Newark/Liberty PTCLDY    84  58  40 NW12      30.09R
Bronx Bot Gard   N/A     82  57  42 N2        30.11R
Wall St Helipt CLEAR     84  61  45 CALM      30.09R
Teterboro      CLEAR     83  56  39 N7        30.08R
$$

NYZ177-179-078>081-300100-
LONG ISLAND NEW YORK

CITY           SKY/WX    TMP DP  RH WIND       PRES   REMARKS
Farmingdale    CLEAR     82  59  45 NE6       30.09R
MacArthur/ISP  PTCLDY    81  56  42 N8        30.08R
Shirley        CLEAR     79  58  48 N7        30.09R
Riverhead      NOT AVBL
Westhampton    CLEAR     78  57  48 CALM      30.10R
Southampton      N/A     79  66  65 NW1       30.04R
Bridgehampton    N/A     73  64  73 CALM      30.07R
East Hampton   FAIR      70  64  81 CALM      30.08R
Montauk          N/A     77  63  61 N5        30.09R
$$

NYZ052-065-067-300100-
HUDSON VALLEY

CITY           SKY/WX    TMP DP  RH WIND       PRES   REMARKS
White Plains   CLEAR     79  56  45 N6        30.11R
Newburgh       CLEAR     77  59  53 N9        30.14R
Montgomery     CLEAR     74  60  61 CALM      30.13R
Poughkeepsie   CLEAR     76  55  48 NE6       30.11R
Albany         MOCLDY    73  58  59 NW5       30.14R
$$

NJZ001-105-106-008-010-013-015-019>022-104-300100-
NEW JERSEY

CITY           SKY/WX    TMP DP  RH WIND       PRES   REMARKS
Newark/Liberty PTCLDY    84  58  40 NW12      30.09R
Teterboro      CLEAR     83  56  39 N7        30.08R
Caldwell       CLEAR     80  60  50 CALM      30.11R
Morristown     PTCLDY    77  59  53 N7        30.10S
Somerville     CLEAR     80  59  48 N5        30.10R
Linden         FAIR      83  55  38 N12G17    30.11R
Sussex         CLEAR     71  61  70 CALM      30.14R
Abdover          N/A     70  63  78 CALM      30.14R
Trenton        CLEAR     81  60  48 N7        30.10R
Millville      CLEAR     79  76  90 W3        30.08R
Atlantic City  MOCLDY    85  72  65 W5        30.07R HX  91
Wrightstown    CLEAR     78  63  58 N9        30.07R
Toms River     CLEAR     80  70  71 NE3       30.09R
Belmar         CLEAR     82  61  48 N8        30.10R
$$

PAZ047>061-062-071-300100-
EASTERN PENNSYLVANIA

CITY           SKY/WX    TMP DP  RH WIND       PRES   REMARKS
Philadelphia   PTCLDY    87  57  35 N14       30.09R
Allentown      CLEAR     76  60  57 N3        30.13R
Scranton       CLEAR     76  59  55 N7        30.17R
$$

CTZ002-004>006-009-010-012-RIZ004-006-007-MAZ004-011-015-300100-
SOUTHERN NEW ENGLAND
 IN CT

CITY           SKY/WX    TMP DP  RH WIND       PRES   REMARKS
Bradley INTL   PTCLDY    74  55  51 N5        30.12R
Hartford       CLEAR     82  56  40 N9        30.09R
Danbury        CLEAR     75  56  51 N8        30.13R
Wtrbury/Oxford PTCLDY    72  55  56 N9        30.15S
Bridgeport     CLEAR     82  55  39 N9        30.09R
Meriden        CLEAR     81  56  42 NW8       30.10R
New Haven      CLEAR     80  56  43 NW6       30.10R
Chester        FAIR      75  61  60 CALM      30.11R
Groton         CLEAR     80  57  45 N7        30.08R
Wilimantic     CLEAR     75  58  55 N3        30.11R

 IN RI

CITY           SKY/WX    TMP DP  RH WIND       PRES   REMARKS
Providence     PTCLDY    80  51  36 N13       30.10R
Block Island   CLEAR     76  61  59 N5        30.09R
Westerly       CLEAR     79  55  43 N6        30.09R
 IN MA

CITY           SKY/WX    TMP DP  RH WIND       PRES   REMARKS
Boston         PTCLDY    78  52  40 N13       30.10R
Worcester      CLEAR     72  51  47 NW7       30.15R
Westfield      CLEAR     74  55  51 N5        30.12R
Provincetown   CLEAR     71  62  73 N12       30.09R
Nantucket      CLEAR     70  59  68 NE7       30.08R
$$

ANZ330-335-338-340-345-350-353-355-300100-
COASTAL MARINE OBSERVATIONS


STATION/POSITION TIME  SKY/WX   TEMP    WIND        PRES    VSBY  WAVE
                                AIR SEA DIR/SP/G                  HT/PER
                 (UTC)          (F)     (DEG/KT/KT) (MB)    (MI)  (FT/S)
NY HARB ENTRANCE 2250            83 79  350/ 10/ 12 1017.5          3/14
20S FIRE ISLAND  2250            77 76  260/  4/  6 1017.6          3/13
GREAT SOUTH BAY  2330            84 80  360/  8/ 14   N/A
23 SSW MONTAUK P 2250            78 76  270/  8/ 10 1017.8          4/13
15 E BARNEGAT LI 2300               78                N/A           3/13
HUDSON CANYON    2250            79 79              1017.9          3/13
KINGS POINT      2300            82 78                N/A
EXECUTION ROCKS  2300            85     360/  6/  8   N/A
CENTRAL LI SOUND 2330            81 77  350/  8/ 10   N/A           1
EASTERN LI SOUND 2300            80 71  340/ 10/ 14   N/A
ROBBINS REEF     2300            86     350/ 12/ 14   N/A
$$


>>>>>>>>>>>>>>>>>>>>>>>>>>>> KEY <<<<<<<<<<<<<<<<<<<<<<<<<<<
>                                                          <
>     SKY/WX - Sky Condition/Present Weather               <
>     TMP    - Temperature in Fahrenheit                   <
>     DP     - Dew Point in Fahrenheit                     <
>     RH     - Relative Humidity in Percent                <
>     WIND   - Direction (from) and Speed in MPH           <
>     PRES   - Mean Sea Level Pressure (inches of Hg)      <
>     WCI    - Wind Chill Index                            <
>     VSB    - VISIBILITY IN MILES                         <
>     HX     - HEAT INDEX                                  <
>     TC     - TEMPERATURE IN CELSIUS                      <
>     VRB    - VARIABLE WIND DIRECTION                     <
>                                                          <
>>>>>>>>>>>>>>>>>>>>>>>>>>>> KEY <<<<<<<<<<<<<<<<<<<<<<<<<<<




USA.gov is the U.S. government's official web portal to all federal, state and local government web resources and services.